Location: ???? ????
(41.4149°N, 22.8816°E)
Time: 01:28:58
(UTC+00:00)

Cosmos 1763 Rocket - Visible Passes

Search period start: 24 October 2020 00:00
Search period end: 03 November 2020 00:00
Orbit: 733 x 779 km, 74.0° (Epoch: 23 October)

Date Brightness Start Highest point End Pass type
(mag) Time Alt. Az. Time Alt. Az. Time Alt. Az.
27 Oct 6.2 04:06:02 10° NNE 04:07:49 12° NE 04:09:36 10° ENE visible
29 Oct 5.6 04:24:52 10° N 04:29:07 26° ENE 04:33:19 10° ESE visible
30 Oct 6.1 03:45:17 10° NNE 03:48:14 15° NE 03:51:09 10° E visible
01 Nov 5.1 04:04:48 10° N 04:09:25 34° ENE 04:14:00 10° SE visible
02 Nov 5.9 03:24:55 10° N 03:28:36 20° ENE 03:32:15 10° ESE visible
